Location: Bouysse
(45.3674°N, 1.8947°E)
Time: 00:15:21
(UTC+00:00)

Daily predictions for brighter satellites

Satellite Brightness Start Highest point End
(mag) Time Altitude Azimuth Time Altitude Azimuth Time Altitude Azimuth
STARLINK-1240 3.9 00:00:32 10° WNW 00:03:59 52° WSW 00:03:59 52° WSW
Cosmos 1763 Rocket 3.3 00:05:58 53° S 00:07:07 77° ESE 00:12:11 10° NNE
Cosmos 1709 Rocket 4.4 00:05:05 34° SE 00:07:23 51° E 00:13:21 10° NNE
Cosmos 2227 Rocket 2.3 00:03:09 10° NNW 00:08:45 61° WSW 00:10:10 46° SSW
Landsat 4 3.7 00:05:34 10° N 00:09:15 65° WNW 00:09:24 65° W
STARLINK-1216 4.1 00:05:32 10° WNW 00:08:47 45° W 00:08:47 45° W
Cosmos 2084 Rocket 4.2 00:08:13 10° NNW 00:12:37 53° NE 00:14:58 25° ESE
Cosmos 1356 Rocket 3.8 00:09:30 10° NNW 00:13:37 49° W 00:13:55 48° WSW
STARLINK-1237 4.3 00:10:32 10° WNW 00:13:34 40° W 00:13:34 40° W
Cosmos 1758 Rocket 4.0 00:15:28 43° SE 00:16:12 48° E 00:20:28 10° NNE
SL-16 R/B 4.2 00:11:22 10° ESE 00:16:24 27° ENE 00:21:26 10° N
STARLINK-75 4.3 00:18:02 32° ENE 00:18:02 32° ENE 00:19:59 10° ENE
STARLINK-1283 3.9 00:20:03 51° ESE 00:20:03 51° ESE 00:23:38 10° ENE
STARLINK-80 4.1 00:21:06 42° E 00:21:06 42° E 00:24:00 10° ENE
Nadezhda 1 Rocket 4.1 00:16:57 10° NNW 00:23:09 66° W 00:25:28 40° SSW
CZ-4 R/B 3.7 00:19:03 10° NNE 00:23:48 87° ESE 00:24:50 55° S
Cosmos 1300 4.3 00:21:12 10° NW 00:24:09 23° W 00:24:09 23° W
SL-16 R/B 4.2 00:22:44 13° ESE 00:24:51 15° E 00:28:01 10° ENE
Cosmos 2208 Rocket 4.3 00:23:37 43° SSE 00:25:00 57° ESE 00:30:15 10° NNE
STARLINK-22 4.3 00:26:16 32° ENE 00:26:16 32° ENE 00:28:13 10° ENE
STARLINK-1297 4.2 00:26:32 38° E 00:26:32 38° E 00:29:06 10° ENE
Cosmos 2285 Rocket 4.0 00:22:23 10° NNW 00:28:47 83° ENE 00:31:55 32° SSE
USA 81 4.0 00:30:17 45° SSE 00:31:55 76° E 00:37:13 10° N
CZ-2D R/B 3.9 00:28:44 10° NE 00:32:41 21° E 00:35:02 16° SE
Cosmos-2242 3.3 00:29:09 10° N 00:33:23 60° E 00:34:24 45° SE
Meteor 2-10 Rocket 3.3 00:28:44 10° NNW 00:33:53 81° W 00:35:16 49° S
USA 215 3.2 00:28:07 11° SE 00:34:31 83° SW 00:41:07 10° NW
Cosmos 1953 Rocket 4.4 00:33:32 35° SE 00:34:35 41° E 00:38:44 10° NNE
Cosmos 1626 Rocket 4.4 00:34:39 34° WSW 00:35:32 38° WNW 00:39:39 10° N
STARLINK-42 3.6 00:36:26 51° NE 00:36:26 51° NE 00:38:54 10° ENE
BREEZE-M R/B 3.8 00:29:07 10° W 00:35:55 57° NNW 00:39:22 10° ENE
Meteor 1-21 Rocket 4.2 00:34:27 43° SSW 00:36:26 81° W 00:42:16 10° N
STARLINK-34 4.4 00:40:01 29° E 00:40:01 29° E 00:41:45 10° ENE
STARLINK-41 3.6 00:40:10 50° NE 00:40:10 50° NE 00:42:33 10° NE
GP-B 4.4 00:37:15 10° NNE 00:41:16 32° E 00:42:59 24° SE
STARLINK-1272 3.3 00:42:02 64° E 00:42:02 64° E 00:45:10 10° ENE
STARLINK-62 4.2 00:43:45 32° ENE 00:43:45 32° ENE 00:45:36 10° ENE
Cosmos 540 Rocket 3.4 00:41:07 47° S 00:42:36 79° ESE 00:47:43 10° NNE
SeaSat 1 4.4 00:39:41 10° N 00:43:27 22° NW 00:47:12 10° W
STARLINK-1307 3.2 00:46:48 78° SE 00:46:48 78° SE 00:50:29 10° ENE
Helios 1B rocket 2.8 00:45:32 10° N 00:49:35 53° WNW 00:50:24 45° WSW
STARLINK-1290 3.1 00:50:11 81° S 00:50:17 82° SE 00:54:01 10° ENE
Cosmos 1980 Rocket 2.1 00:51:50 41° SSW 00:53:54 85° ESE 00:59:35 10° NNE
STARLINK-1317 3.4 00:56:33 58° WSW 00:57:15 85° NNW 01:01:11 10° ENE
Uosat 12 SS-18 rocket 4.2 00:53:23 10° NW 00:57:35 52° WSW 00:58:02 50° SW
Meteor 1-29 3.0 00:54:48 10° N 00:58:07 59° WNW 00:58:11 59° W
Cosmos 1455 2.7 00:56:28 10° NNW 01:00:02 42° W 01:00:05 42° W
Cosmos 1328 3.7 00:59:35 60° SW 01:00:13 76° W 01:04:14 10° N
STARLINK-55 3.9 01:00:33 39° WNW 01:01:13 46° NNW 01:04:19 10° NE
STARLINK-1274 3.2 01:00:56 68° W 01:01:17 79° NNW 01:04:51 10° ENE
Cosmos 2369 4.3 01:02:04 27° WSW 01:04:52 49° WNW 01:10:22 10° NNE
STARLINK-1291 3.4 01:04:15 54° W 01:04:59 77° NNW 01:08:44 10° NE
Cosmos 1937 Rocket 4.2 01:01:17 10° NW 01:06:07 37° WSW 01:07:10 34° SW
Meteor 1-11 4.3 01:03:54 35° S 01:06:20 72° E 01:11:54 10° NNE
Cosmos 1703 3.5 01:05:53 50° WSW 01:06:30 57° W 01:10:23 10° N
Lacrosse 4 Rocket 2.9 01:04:30 10° NW 01:07:20 23° W 01:07:20 23° W
STARLINK-1264 3.4 01:07:26 49° W 01:08:18 73° NNW 01:12:03 10° NE
Cosmos 1825 Rocket 3.8 01:08:39 43° SW 01:09:41 55° WNW 01:13:59 10° N
ADEOS II 4.2 01:07:03 10° NE 01:10:42 19° E 01:14:19 10° SE
Cosmos 2263 Rocket 2.5 01:05:19 10° NNW 01:10:54 63° ENE 01:15:58 12° SE
STARLINK-1295 4.4 01:11:26 34° SE 01:11:35 34° SE 01:15:21 10° ENE
STARLINK-1267 3.5 01:10:40 44° W 01:11:41 69° NNW 01:15:24 10° NE
NOSS 2-1 (C) 4.0 01:12:05 31° ESE 01:12:10 31° ESE 01:15:18 10° NE
Timation 1 Rocket 4.2 01:06:27 10° NNW 01:12:28 84° WSW 01:16:19 23° SSE
STARLINK-28 4.3 01:11:33 26° WNW 01:12:47 37° NNW 01:15:49 10° NE
SL-4 R/B 2.6 01:09:07 10° WNW 01:13:58 70° NNE 01:18:40 10° ESE
STARLINK-64 3.3 01:14:12 56° SE 01:14:14 56° SE 01:17:46 10° ENE
Cosmos 2297 Rocket 3.9 01:11:04 10° WNW 01:14:16 16° W 01:14:46 15° WSW
UNK 4.3 01:11:40 22° SE 01:14:26 56° ENE 01:18:55 10° N
USA 229 DEB 4.1 01:09:02 10° NW 01:16:18 72° NE 01:23:55 10° SE
USA 229 4.1 01:09:08 10° NW 01:16:24 72° NE 01:24:01 10° SE
STARLINK-1287 4.3 01:16:13 37° SSE 01:16:32 37° SE 01:20:22 10° ENE
NOSS 2-1 (D) 3.8 01:16:50 35° SE 01:17:02 36° ESE 01:20:16 10° NE
NOSS 3-1 (C) 4.2 01:09:40 10° NW 01:17:12 79° NE 01:25:51 10° SE
STARLINK-1207 3.7 01:17:09 36° W 01:18:27 63° NNW 01:22:11 10° NE
Cosmos 372 Rocket 4.0 01:13:40 10° NNW 01:18:46 63° WSW 01:20:47 36° S
Cosmos 2184 Rocket 4.1 01:16:26 28° S 01:19:49 71° E 01:25:59 10° NNE
NPP 4.3 01:14:45 10° NNE 01:19:58 48° E 01:22:54 24° SSE
CZ-4C R/B 3.6 01:16:43 12° W 01:21:04 33° NW 01:26:41 10° NNE
STARLINK-1266 3.8 01:20:25 33° W 01:21:52 60° NNW 01:25:34 10° NE
BREEZE-M DEB (TANK) 2.7 01:23:13 39° ENE 01:23:13 39° ENE 01:24:53 10° ENE
STARLINK-33 4.3 01:21:41 23° WNW 01:23:00 35° NNW 01:25:55 10° NE
STARLINK-1299 3.9 01:24:05 43° S 01:24:56 51° SE 01:29:05 10° ENE
STARLINK-1284 3.8 01:23:41 30° W 01:25:16 57° NNW 01:28:59 10° NE
STARLINK-1302 4.1 01:25:46 40° SSE 01:26:26 44° SE 01:30:24 10° ENE
BREEZE-M DEB (TANK) 2.9 01:24:48 10° WNW 01:27:15 31° N 01:29:26 10° ENE
Alouette 2 Rocket 4.5 01:23:43 10° NNW 01:27:36 28° W 01:28:04 28° WSW
STARLINK-1258 3.9 01:26:59 28° W 01:28:43 54° NNW 01:32:24 10° NE
Cosmos 1869 4.2 01:26:57 10° N 01:30:40 44° ENE 01:33:00 20° SE
STARLINK-1273 4.0 01:30:32 41° S 01:31:23 48° SE 01:35:23 10° ENE
Cosmos 2150 Rocket 3.9 01:26:17 10° NNW 01:31:24 66° WSW 01:33:54 30° S
STARLINK-1292 4.0 01:30:17 25° W 01:32:10 52° NNW 01:35:50 10° NE
Cosmos 2322 Rocket 2.9 01:29:42 24° SSE 01:32:41 44° ESE 01:38:00 10° NE
STARLINK-1288 3.9 01:35:19 41° S 01:36:20 52° SE 01:40:23 10° ENE
STARLINK-61 4.1 01:35:51 35° SSE 01:36:30 38° SE 01:40:10 10° ENE
STARLINK-1268 4.2 01:36:29 23° WNW 01:37:54 37° NNW 01:40:49 10° NE
STARLINK-1289 4.2 01:36:52 21° W 01:39:02 47° NNW 01:42:42 10° NE
Cosmos 1697 Rocket 4.2 01:36:19 13° WSW 01:40:17 27° NW 01:45:05 10° N
STARLINK-1301 4.3 01:38:35 19° W 01:41:01 46° NNW 01:44:46 10° NE
STARLINK-1308 3.7 01:40:08 40° SSW 01:41:21 58° SE 01:45:26 10° ENE
Resurs 1-4 Rocket 2.1 01:36:37 10° NNE 01:41:58 86° ESE 01:44:54 28° SSW
STARLINK-1303 4.3 01:40:12 20° W 01:42:32 46° NNW 01:46:10 10° NE
STARLINK-1316 4.3 01:41:31 20° WNW 01:43:10 35° NNW 01:46:06 10° NE
Cosmos 1400 Rocket 3.5 01:39:53 10° NNW 01:43:46 40° W 01:44:46 34° SW
STARLINK-1257 4.3 01:42:21 19° WNW 01:44:04 34° NNW 01:46:59 10° NE
STARLINK-1256 4.4 01:43:18 19° WNW 01:45:03 34° NNW 01:47:57 10° NE
Cosmos 1125 Rocket 3.4 01:39:51 10° NNW 01:45:04 80° WSW 01:48:54 19° SSE
STARLINK-58 3.9 01:44:00 25° W 01:45:26 43° NNW 01:48:30 10° NE
STARLINK-1213 4.4 01:44:08 18° WNW 01:45:56 34° NNW 01:48:49 10° NE
STARLINK-1312 4.4 01:43:33 18° W 01:46:02 44° NNW 01:49:41 10° NE
Meteor 2-17 Rocket 4.4 01:42:53 24° S 01:46:43 85° E 01:52:52 10° N
STARLINK-1263 4.4 01:45:01 18° WNW 01:46:49 33° NNW 01:49:43 10° NE
STARLINK-1259 4.4 01:45:54 17° WNW 01:47:46 33° NNW 01:50:39 10° NE
STARLINK-52 4.0 01:44:39 10° NW 01:47:47 47° NNE 01:50:54 10° ESE
STARLINK-1265 4.4 01:46:15 17° WNW 01:48:10 33° NNW 01:51:05 10° NE
STARLINK-1285 4.4 01:46:45 17° WNW 01:48:39 33° NNW 01:51:32 10° NE
STARLINK-1296 4.5 01:48:30 16° WNW 01:50:28 32° NNW 01:53:20 10° NE
STARLINK-1304 3.6 01:49:41 35° SW 01:51:16 68° SE 01:55:24 10° ENE
STARLINK-1260 4.5 01:49:21 16° WNW 01:51:22 32° NNW 01:54:14 10° NE
Cosmos 1408 4.3 01:49:31 13° SE 01:52:04 27° E 01:55:13 10° NNE
Cosmos 2154 Rocket 4.0 01:49:51 22° S 01:54:09 83° E 02:00:23 10° N
STARLINK-48 3.8 01:53:48 24° WSW 01:55:58 63° NNW 01:59:51 10° NE
GEOS 3 Rocket 3.8 01:51:56 10° SE 01:57:08 79° NE 02:02:26 10° NW
STARLINK-1278 3.6 01:55:21 30° SW 01:57:25 84° SSE 02:01:42 10° ENE
Meteor 1-27 4.4 01:52:36 10° NNW 01:58:01 54° W 02:01:18 24° SSW
Cosmos 1825 4.3 01:55:44 10° SE 01:58:42 22° E 02:01:40 10° NE
Cosmos 2227 4.5 01:53:25 10° NW 01:58:57 49° WSW 02:02:40 20° S
STARLINK-1280 3.6 01:57:07 29° SW 01:59:16 86° SE 02:03:33 10° ENE
SL-16 R/B 2.6 01:55:29 21° S 01:59:37 58° W 02:05:43 10° NNW
Iridium 2 3.6 01:57:42 10° N 02:01:28 67° W 02:03:12 30° SSW
Cosmos 1241 Rocket 4.5 01:57:57 24° SW 02:01:53 79° NW 02:08:11 10° NNE
Meteor 2-2 Rocket 4.3 01:57:28 10° NNW 02:03:32 82° W 02:08:42 14° S
Cosmos 1844 Rocket 4.1 02:00:03 10° NNW 02:05:19 40° NE 02:10:32 10° SE
NOSS 2-1 (E) 3.0 02:04:58 32° SW 02:06:23 74° NW 02:10:03 10° NE
STARLINK-1286 3.6 02:05:37 26° WSW 02:07:55 90° SSE 02:12:06 10° ENE
SL-16 R/B 2.2 02:04:36 24° SSW 02:08:10 83° WNW 02:13:53 10° NNE
CRYOSAT 2 4.4 02:03:30 10° N 02:08:23 72° W 02:11:31 22° SSW
STARLINK-1281 3.6 02:08:48 25° WSW 02:11:09 89° NNW 02:15:19 10° ENE
STARLINK-40 4.5 02:10:18 23° S 02:11:35 29° SE 02:14:47 10° ENE
IRIDIUM 104 4.4 02:07:38 17° S 02:11:39 83° E 02:16:54 10° N
CZ-2D R/B 2.4 02:07:59 10° N 02:13:03 53° WNW 02:16:21 21° SW
STARLINK-44 4.4 02:11:49 23° S 02:13:09 30° SE 02:16:23 10° ENE
STARLINK-1029 4.3 02:11:18 15° W 02:13:36 35° NNW 02:16:34 10° NE
Cosmos 2221 2.8 02:09:28 10° NNW 02:13:45 53° W 02:16:17 23° SSW
STARLINK-37 4.3 02:13:33 24° S 02:14:58 33° SE 02:18:16 10° ENE
STARLINK-60 3.2 02:12:40 10° WNW 02:15:43 44° SW 02:18:46 10° SE
STARLINK-1310 3.6 02:13:35 23° WSW 02:16:08 83° NNW 02:20:18 10° ENE
STARLINK-36 4.3 02:14:56 23° S 02:16:23 32° SE 02:19:39 10° ENE
FALCON 9 DEB 3.9 02:13:42 10° NW 02:17:06 54° NNE 02:20:31 10° ESE
USA 215 4.2 02:15:22 19° SSW 02:18:08 24° SW 02:23:19 10° WNW
GP-B 4.5 02:14:49 10° NNW 02:18:26 25° WNW 02:20:26 18° WSW
Nadezhda 3 Rocket 4.1 02:12:54 10° NNW 02:19:08 65° W 02:24:39 14° S
Cosmos 1315 Rocket 3.3 02:15:43 10° NNW 02:19:26 42° W 02:21:25 23° SSW
STARLINK-63 4.2 02:18:10 24° S 02:19:44 36° SE 02:23:05 10° ENE
IRIDIUM 114 4.3 02:16:46 17° S 02:20:48 82° W 02:26:04 10° N
Cosmos 1842 Rocket 4.3 02:16:50 10° NNW 02:20:56 37° W 02:23:13 22° SW
STARLINK-35 4.2 02:19:32 23° S 02:21:05 35° SE 02:24:23 10° ENE
STARLINK-1319 3.7 02:18:21 20° WSW 02:21:06 78° NNW 02:25:16 10° ENE
CBERS-1 4.0 02:17:35 10° NNE 02:22:44 84° WNW 02:26:39 18° SSW
STARLINK-51 4.1 02:21:14 23° S 02:22:53 37° SE 02:26:15 10° ENE
STARLINK-30 4.1 02:22:49 23° SSW 02:24:33 38° SE 02:27:56 10° ENE
STARLINK-72 4.0 02:24:13 23° SSW 02:25:56 38° SE 02:29:17 10° ENE
STARLINK-1277 3.7 02:23:08 18° WSW 02:26:06 73° NNW 02:30:15 10° NE
Shenzhou-11 Module 1.7 02:26:47 38° SW 02:27:14 44° S 02:29:35 10° ESE
STARLINK-59 3.8 02:27:25 23° SSW 02:29:16 43° SE 02:32:41 10° ENE
Cosmos 2058 3.1 02:27:00 21° SSW 02:29:42 58° WNW 02:33:52 10° N
IRIDIUM 103 4.4 02:25:55 17° SSW 02:29:59 68° W 02:35:12 10° N
Cosmos 2360 Rocket 2.4 02:25:44 16° SSW 02:30:15 68° ESE 02:35:52 10° NNE
STARLINK-56 3.9 02:29:04 22° SSW 02:31:01 43° SE 02:34:29 10° ENE
STARLINK-1276 3.8 02:27:56 17° WSW 02:31:06 68° NNW 02:35:15 10° NE
STARLINK-73 3.8 02:30:38 21° SSW 02:32:39 44° SE 02:36:08 10° ENE
STARLINK-38 3.8 02:32:12 21° SSW 02:34:16 46° SE 02:37:46 10° ENE
STARLINK-65 3.8 02:33:46 21° SSW 02:35:54 48° SE 02:39:25 10° ENE
STARLINK-1305 3.9 02:32:42 15° WSW 02:36:04 64° NNW 02:40:11 10° NE
STARLINK-68 3.6 02:34:23 21° SSW 02:36:35 52° SE 02:40:09 10° ENE
STARLINK-1306 4.0 02:33:14 14° WSW 02:36:45 61° NNW 02:40:56 10° NE
STARLINK-53 3.6 02:35:24 21° SSW 02:37:36 52° SE 02:41:09 10° ENE
STARLINK-1012 4.4 02:35:47 18° SSW 02:38:28 39° SE 02:42:21 10° ENE
Cosmos 1980 Rocket 4.1 02:34:42 10° W 02:38:40 19° NW 02:42:42 10° N
STARLINK-50 3.8 02:37:26 19° SSW 02:39:52 50° SE 02:43:35 10° ENE
CZ-4B R/B 4.2 02:35:31 10° N 02:40:28 43° WNW 02:44:31 15° SW
STARLINK-1262 4.0 02:37:30 13° WSW 02:41:05 60° NNW 02:45:12 10° NE
Cosmos 2333 Rocket 3.6 02:38:55 10° SSE 02:43:55 34° ESE 02:48:58 10° NE
STARLINK-71 3.8 02:41:45 18° SW 02:44:37 58° SE 02:48:35 10° ENE
Meteor 1-28 Rocket 3.4 02:42:16 10° SSE 02:45:59 74° ENE 02:49:44 10° N
STARLINK-1300 4.1 02:42:17 12° WSW 02:46:04 56° NNW 02:50:10 10° NE
Cosmos 2219 Rocket 3.5 02:43:05 10° SSE 02:48:02 34° ESE 02:53:01 10° NE
STARLINK-1026 4.2 02:45:20 16° SSW 02:48:22 47° SE 02:52:21 10° ENE
STARLINK-29 3.1 02:45:29 10° WNW 02:48:34 46° SW 02:51:37 10° SE
Cosmos 2322 4.3 02:43:47 10° S 02:49:18 53° ESE 02:54:52 10° NE
ADEOS II 2.3 02:45:37 10° N 02:50:49 62° WNW 02:55:36 12° SSW
STARLINK-1295 4.2 02:47:03 10° WSW 02:51:03 53° NNW 02:55:07 10° NE
STARLINK-1379 4.5 02:49:14 10° NW 02:53:11 52° NNE 02:57:08 10° ESE
STARLINK-1013 4.1 02:50:08 15° SSW 02:53:21 51° SE 02:57:22 10° ENE
SL-4 R/B 3.0 02:49:13 10° WNW 02:53:29 33° SW 02:57:35 10° SSE
IRS-1D 4.1 02:48:31 10° N 02:53:33 46° WNW 02:58:00 12° SW
Cosmos 2263 Rocket 3.5 02:50:18 10° NW 02:54:17 20° W 02:57:35 12° SW
IDEFIX/ARIANE 42P 3.4 02:49:14 10° NNE 02:54:21 49° E 02:59:25 10° S
Cosmos 1606 3.4 02:51:20 10° N 02:55:04 56° E 02:58:48 10° SSE
ERS-2 2.2 02:51:57 10° SSE 02:55:37 83° ENE 02:59:18 10° NNW
STARLINK-1287 4.3 02:52:00 10° W 02:56:03 50° NNW 03:00:06 10° NE
STARLINK-25 3.2 02:53:37 15° SW 02:56:19 71° SE 02:59:47 10° ENE
STARLINK-1329 4.4 02:53:04 10° NW 02:57:02 54° NNE 03:01:01 10° ESE
STARLINK-1009 4.0 02:54:54 14° SW 02:58:18 55° SE 03:02:22 10° ENE
ATLAS 5 CENTAUR R/B 4.0 02:56:21 10° SE 02:58:22 13° ESE 03:00:28 10° E
Cosmos 2341 Rocket 4.2 02:52:36 11° SSW 02:58:38 59° WNW 03:04:53 10° N
BREEZE-M R/B 2.7 02:55:24 10° WNW 02:58:55 56° NNE 03:01:21 10° E
Cosmos 1892 4.0 02:56:52 13° SW 02:59:27 26° WNW 03:02:42 10° NNW
ARIANE 5 R/B 2.5 02:55:00 10° NNE 03:00:02 82° WNW 03:05:01 10° SSW
STARLINK-1362 4.3 02:57:36 10° NW 03:01:36 58° NNE 03:05:35 10° ESE
STARLINK-1320 3.2 02:59:49 10° NW 03:02:56 71° NNE 03:06:03 10° ESE
STARLINK-1015 3.9 02:59:41 13° SW 03:03:16 60° SE 03:07:21 10° ENE
STARLINK-1322 3.1 03:00:10 10° NW 03:03:18 71° NNE 03:06:24 10° ESE
STARLINK-1324 3.1 03:00:30 10° NW 03:03:37 72° NNE 03:06:43 10° ESE
STARLINK-1294 3.1 03:00:47 10° NW 03:03:55 72° NNE 03:07:04 10° ESE
STARLINK-1261 3.1 03:01:11 10° NW 03:04:18 73° NNE 03:07:24 10° ESE
CZ-2C R/B 3.6 03:00:55 10° NNE 03:04:36 49° E 03:08:19 10° S
STARLINK-1325 3.1 03:01:32 10° NW 03:04:39 73° NNE 03:07:46 10° ESE
STARLINK-1333 3.1 03:01:53 10° NW 03:05:01 74° NNE 03:08:08 10° ESE
CZ-2D R/B 3.6 03:00:47 10° NNE 03:05:05 82° ESE 03:09:26 10° SSW
STARLINK-1334 3.1 03:02:11 10° NW 03:05:18 74° NNE 03:08:25 10° ESE
STARLINK-1326 3.1 03:02:30 10° NW 03:05:37 75° NNE 03:08:44 10° ESE
STARLINK-1323 3.1 03:02:53 10° NW 03:06:01 75° NNE 03:09:07 10° ESE
STARLINK-1373 4.2 03:02:04 10° NW 03:06:04 61° NNE 03:10:03 10° ESE
Cosmos 1408 Rocket 4.3 03:02:07 10° S 03:06:18 53° E 03:10:31 10° NNE
STARLINK-1349 3.1 03:03:11 10° NW 03:06:19 76° NNE 03:09:25 10° ESE
STARLINK-1336 3.0 03:03:30 10° NW 03:06:38 76° NNE 03:09:45 10° ESE
IRS-1C 4.4 03:01:44 10° N 03:06:58 56° WNW 03:12:09 10° SSW
STARLINK-1331 3.0 03:03:53 10° NW 03:07:01 77° NNE 03:10:08 10° ESE
STARLINK-1344 3.0 03:04:11 10° NW 03:07:19 77° NNE 03:10:26 10° ESE
Cosmos 1959 Rocket 4.5 03:01:22 10° S 03:07:31 80° W 03:13:39 10° N
STARLINK-24 3.5 03:03:58 12° SW 03:07:41 86° SE 03:11:43 10° ENE
STARLINK-1343 3.0 03:04:34 10° NW 03:07:42 78° NNE 03:10:48 10° ESE
STARLINK-1346 3.0 03:04:50 10° NW 03:08:00 78° NNE 03:11:09 10° ESE
STARLINK-1016 3.8 03:04:27 12° SW 03:08:13 66° SE 03:12:21 10° ENE
STARLINK-1328 3.0 03:05:17 10° NW 03:08:25 79° NNE 03:11:32 10° ESE
STARLINK-1354 3.0 03:05:35 10° NW 03:08:42 79° NNE 03:11:49 10° ESE
STARLINK-1347 3.0 03:05:52 10° NW 03:08:59 79° NNE 03:12:06 10° ESE
Cosmos 1844 3.8 03:03:22 10° NNW 03:09:13 86° WSW 03:15:00 10° SSE
STARLINK-1357 3.0 03:06:17 10° WNW 03:09:26 80° NNE 03:12:32 10° ESE
STARLINK-1335 3.0 03:06:34 10° WNW 03:09:42 81° NNE 03:12:49 10° ESE
STARLINK-1327 3.0 03:06:55 10° WNW 03:10:04 81° NE 03:13:10 10° ESE
STARLINK-1340 2.9 03:07:13 10° WNW 03:10:21 81° NNE 03:13:28 10° ESE
STARLINK-1356 2.9 03:07:37 10° WNW 03:10:44 82° NNE 03:13:52 10° ESE
STARLINK-1390 4.1 03:06:44 10° NW 03:10:46 65° NNE 03:14:47 10° ESE
STARLINK-1345 2.9 03:07:55 10° WNW 03:11:03 83° NNE 03:14:09 10° ESE
STARLINK-1355 2.9 03:08:16 10° WNW 03:11:25 83° NNE 03:14:31 10° ESE
STARLINK-1321 2.9 03:08:37 10° WNW 03:11:45 84° NNE 03:14:52 10° ESE
STARLINK-1358 2.9 03:09:01 10° WNW 03:12:08 84° NNE 03:15:15 10° ESE
STARLINK-1332 2.9 03:09:18 10° WNW 03:12:26 85° NNE 03:15:33 10° ESE
STARLINK-1348 2.9 03:09:39 10° WNW 03:12:46 85° NNE 03:15:53 10° ESE
STARLINK-1330 2.9 03:09:58 10° WNW 03:13:05 86° NNE 03:16:12 10° ESE
STARLINK-1008 3.7 03:09:15 11° SW 03:13:12 71° SE 03:17:21 10° ENE
STARLINK-1363 2.9 03:10:18 10° WNW 03:13:26 86° NE 03:16:33 10° ESE
STARLINK-1337 2.9 03:10:40 10° WNW 03:13:48 87° NNE 03:16:55 10° ESE
STARLINK-1342 2.9 03:10:59 10° WNW 03:14:07 87° NE 03:17:14 10° ESE
STARLINK-1364 2.9 03:11:19 10° WNW 03:14:28 88° NE 03:17:34 10° ESE
STARLINK-1376 2.9 03:11:39 10° WNW 03:14:47 88° NNE 03:17:54 10° ESE
STARLINK-1360 2.9 03:12:00 10° WNW 03:15:08 89° NE 03:18:16 10° ESE
STARLINK-61 4.3 03:11:24 10° W 03:15:11 46° NNW 03:19:00 10° NE
STARLINK-1361 2.8 03:12:21 10° WNW 03:15:28 89° NE 03:18:36 10° ESE
STARLINK-1367 2.9 03:12:36 10° WNW 03:15:46 89° SW 03:18:56 10° ESE
STARLINK-1366 2.8 03:13:00 10° WNW 03:16:07 89° SW 03:19:14 10° ESE
STARLINK-81 3.3 03:12:44 10° WSW 03:16:21 86° NW 03:20:00 10° ENE
Cosmos 1633 4.5 03:13:32 10° SSE 03:16:40 29° E 03:19:51 10° NNE
STARLINK-1365 3.9 03:12:43 10° NW 03:16:48 71° NNE 03:20:51 10° ESE
Cosmos 2322 Rocket 3.3 03:11:53 10° WSW 03:16:52 32° NW 03:21:53 10° N
CZ-4B R/B 3.9 03:14:55 10° SE 03:17:28 24° ENE 03:20:05 10° NNE
Cosmos 1151 Rocket 3.1 03:13:09 10° N 03:17:34 85° W 03:21:57 10° S
STARLINK-54 3.3 03:14:31 10° WSW 03:18:07 77° NNW 03:21:44 10° NE
Meteor 2-3 Rocket 4.2 03:12:40 10° S 03:18:10 63° E 03:23:42 10° NNE
STARLINK-1014 3.6 03:14:04 10° SW 03:18:11 77° SE 03:22:18 10° ENE
SL-8 Rocket 4.3 03:12:11 10° SSW 03:18:20 56° WNW 03:24:30 10° N
Cosmos 1461 4.0 03:14:10 10° NNW 03:18:47 58° NE 03:23:27 10° SE
STARLINK-77 3.3 03:15:59 10° WSW 03:19:37 81° NNW 03:23:15 10° ENE
Cosmos 2344 4.5 03:12:52 10° S 03:19:54 43° ESE 03:27:10 10° NE
Resurs 1-4 Rocket 4.1 03:18:02 10° NNW 03:21:05 16° WNW 03:24:07 10° W
Cosmos 2151 3.6 03:17:27 10° SSW 03:21:30 41° WNW 03:25:36 10° N
Lacrosse 5 rocket 2.7 03:18:43 10° S 03:22:13 28° SE 03:25:34 10° ENE
Cosmos 2218 Rocket 4.2 03:16:28 10° SSW 03:22:45 62° WNW 03:29:07 10° N
H-2A R/B 2.2 03:18:30 10° S 03:22:53 64° WSW 03:27:23 10° NNW
STARLINK-1025 3.6 03:19:01 10° SW 03:23:10 83° SE 03:27:19 10° ENE
STARLINK-52 4.0 03:21:02 10° WNW 03:23:45 25° SW 03:26:28 10° SSE
COBE Rocket 4.5 03:19:20 10° SSW 03:24:06 41° W 03:29:01 10° NNW
Cosmos 1766 Rocket 3.7 03:19:55 10° SSW 03:24:11 58° WNW 03:28:28 10° N
STARLINK-79 3.4 03:20:53 10° WSW 03:24:30 75° NNW 03:28:09 10° NE
STARLINK-78 3.4 03:22:32 10° WSW 03:26:09 72° NNW 03:29:47 10° NE
STARLINK-1338 3.7 03:22:38 10° WNW 03:26:39 81° NNE 03:30:38 10° ESE
Cosmos 1408 4.2 03:24:16 10° WSW 03:27:05 20° WNW 03:29:54 10° NNW
Okean 3 Rocket 4.1 03:22:54 10° SSW 03:27:17 47° WNW 03:31:42 10° N
STARLINK-57 3.5 03:24:12 10° WSW 03:27:48 68° NNW 03:31:24 10° NE
STARLINK-1017 3.6 03:23:58 10° SW 03:28:07 89° SE 03:32:17 10° ENE
STARLINK-49 3.5 03:25:43 10° WSW 03:29:19 69° NNW 03:32:56 10° NE
Cosmos 1515 Rocket 3.8 03:25:07 10° N 03:29:30 74° E 03:33:49 10° SSE
Spot 4 Rocket 4.2 03:26:41 10° N 03:31:45 59° WNW 03:36:46 10° SSW
